Regional Weather Roundup
Issued by NWS Lake Charles, LA

Home | Current Version | Previous Version | Text Only | Print | Product List | Glossary On
Versions: 1 2 3 4 5 6 7 8 9 10 11 12 13 14 15 16 17 18 19 20 21 22 23 24 25 26 27
000
ASUS44 KLCH 281810
RWRLCH
REGIONAL WEATHER ROUNDUP
NATIONAL WEATHER SERVICE LAKE CHARLES LA
100 PM CDT THU JUL 28 2016

Note: "fair" indicates few or no clouds below 12,000 feet with no
significant weather and/or obstructions to visibility.


ACROSS SOUTHEAST TEXAS

CITY           SKY/WX    TMP DP  RH WIND       PRES   REMARKS
BEAUMONT       CLOUDY    88  76  67 S5        30.00F
BEAUMONT CITY  FAIR      91  75  60 SW9       30.00F HX 101
ORANGE         CLOUDY    88  74  63 S7        30.02F
JASPER           N/A     85  74  70 NE3       30.02F
$$

ACROSS CENTRAL LOUISIANA

CITY           SKY/WX    TMP DP  RH WIND       PRES   REMARKS
LEESVILLE      NOT AVBL
FULLERTON      LGT RAIN  86  77  74 VRB3      29.98F
ALEXANDRIA INT PTSUNNY   85  78  80 N6        29.99F
ESLER FIELD    PTSUNNY   90  76  63 NW5       30.02F HX 101
DERIDDER       FAIR      92  71  50 S10       30.02F
OAKDALE        PTCLDY    91  77  62 SW6       30.01F HX 104
OPELOUSAS      CLOUDY    72  67  84 SE7G13    30.04R THUNDER
$$

ACROSS SOUTHWEST AND SOUTH CENTRAL LOUISIANA

CITY           SKY/WX    TMP DP  RH WIND       PRES   REMARKS
SULPHUR        CLOUDY    89  75  62 S8        30.02F
LAKE CHARLES   CLOUDY    88  73  61 SW7       30.01F
CHENNAULT INT  MOSUNNY   90  72  55 S7        30.02F
CAMERON PHI    CLEAR     88  75  66 SW6       30.01F
DEQUINCY       MOCLDY    87  77  70 S5        30.01F
JENNINGS       FAIR      90  75  62 SW8       30.02F HX 100
LAFAYETTE      PTSUNNY   90  78  68 S9G20     30.02F HX 104
NEW IBERIA     CLOUDY    90  76  63 SW9       30.03F HX 101
ABBEVILLE      FAIR      88  80  76 SE8       30.03F HX 105
PATTERSON      MOSUNNY   90  80  72 S10       30.05F HX 107
SALT POINT       N/A     89  78  70 SW6       30.03F HX 103
$$

SELECTED SITES ACROSS THE REGION

CITY           SKY/WX    TMP DP  RH WIND       PRES   REMARKS
HOUSTON BUSH   TSTM      76  73  91 SW5G17    30.05R FOG
HOUSTON HOBBY  LGT RAIN  79  72  79 W7        30.02R
GALVESTON      CLOUDY    87  75  67 W6        30.02F
COLLEGE STAT   MOSUNNY   92  73  53 W12       29.98F HX 100
CONROE         CLOUDY    81  71  71 S12       30.03R
HUNTSVILLE     SUNNY     92  72  51 SW6       29.99F
LUFKIN         PTSUNNY   91  76  61 W10       29.99F HX 103
SHREVEPORT     TSTM      75  73  93 MISG      30.01S VSB 3/4
MONROE         RAIN      74  74 100 S6        30.07S FOG
NATCHEZ MS     CLOUDY    81  73  78 N10G16    30.06S
BATON ROUGE    CLOUDY    90  74  59 SW8       30.02F
N.O. INTL ARPT PTSUNNY   93  75  55 S10       30.04F HX 104
SLIDELL        PTSUNNY   90  76  63 S9        30.04F HX 101
$$

MARINE REPORTS

STATION/POSITION TIME  SKY/WX   TEMP    WIND        PRES    VSBY
                                AIR SEA DIR/SP/G
                 (UTC)          (F)     (DEG/KT/KT) (MB)    (MI)
BUOY 30 S HIGH I 1750            86 86  200/  8/ 10 1016.3F
WVE H/P(F/S)=  3/ 6

SEA RIM ST PARK  1800            87     210/ 10/ 12 1017.0S
PORT ARTHUR      1700               88  180/  6/  8 1016.7F
SABINE PASS N    1700            86 87  200/  6/ 10 1018.0F
TEXAS POINT      NOT AVBL
CALCASIEU PASS   1700            86 86  250/  4/  7 1016.2F
LK CHARLES BEACH 1700            87 86              1017.3F
MARSH ISLAND     1700            88                   N/A
FRESH WATER LOCK 1700            86 83  180/  8/ 12 1018.0F
AMERADA PASS     1700            87 86  150/  5/  7 1017.8R
$$




USA.gov is the U.S. government's official web portal to all federal, state and local government web resources and services.